Address 0xff9eb11a1515e2d4aaed52452b4b61a79198ce9e 4

 
Txn Hash Method
Block
From
To
Value [Txn Fee]
0xab67155811fd967f3a474b1b06c6031da2cf4d48cfb8e3182f07460b03b361acZap In219291602021-11-29 7:56:251 day 3 hrs ago0xff9eb11a1515e2d4aaed52452b4b61a79198ce9eOUT Zapper.Fi: Quickswap Zap In0 MATIC0.00966771
0xb5f08229886434ae3f304a4b4c7bf5c85e3768843645418833bc7a8335ccc77eApprove219291462021-11-29 7:55:531 day 3 hrs ago0xff9eb11a1515e2d4aaed52452b4b61a79198ce9eOUT USD Coin0 MATIC0.00122994
0x670a94b0bfa11999e8a7c0331b8dee709787633ce7587e5da259d0a5b7123ef40x415565b0219291122021-11-29 7:54:451 day 3 hrs ago0xff9eb11a1515e2d4aaed52452b4b61a79198ce9eOUT 0x: Exchange Proxy0 MATIC0.00607446
0x813401e2d1cae5166397cde53af6b15f2265ed4380316560b030824cbcc4d979Approve219290942021-11-29 7:54:091 day 3 hrs ago0xff9eb11a1515e2d4aaed52452b4b61a79198ce9eOUT 0xc2132d05d31c914a87c6611c10748aeb04b58e8f0 MATIC0.00155172
0x7e49de6d50ee5f7984dac1d56d939e9053227897d7e613613568b22049e69eb6Zap Out219290532021-11-29 7:52:431 day 3 hrs ago0xff9eb11a1515e2d4aaed52452b4b61a79198ce9eOUT Zapper.Fi: Aave Zap In0 MATIC0.01307253
0xf933f803ad0c9404089ad88bef8fe95f2b637eb3fd7d6eb15fdddaeb2b7ab91fApprove219290162021-11-29 7:51:251 day 3 hrs ago0xff9eb11a1515e2d4aaed52452b4b61a79198ce9eOUT Aave: amUSDT Token0 MATIC0.00153888
0x838772ab10afb086719ad8c17d9214cf6edeca6360fe4aca7e80ad12d3893a8eSwap Exact Token...216714982021-11-22 12:58:457 days 22 hrs ago0xff9eb11a1515e2d4aaed52452b4b61a79198ce9eOUT QuickSwap: Router0 MATIC0.0229333
0x7a200ec3bf8937322ac7192fec472c3fe0216122f9225239df4864504aa13203Swap Exact Token...216714682021-11-22 12:57:417 days 22 hrs ago0xff9eb11a1515e2d4aaed52452b4b61a79198ce9eOUT QuickSwap: Router0 MATIC0.0051077
0x51b13ecf35c4bbc8d16d2972afc7df619bcc9f553d47dd749079dea45ea497d4Approve216714622021-11-22 12:57:297 days 22 hrs ago0xff9eb11a1515e2d4aaed52452b4b61a79198ce9eOUT 0x2a1f0ad3cab040e28845734d932f3ff0a24b14f40 MATIC0.00605462
0x20822682bc0c89a17642d25bfcb8e3cbac29f3ec89740a88d9ee248c68e44cbfClaim216709662021-11-22 12:36:077 days 22 hrs ago0xff9eb11a1515e2d4aaed52452b4b61a79198ce9eOUT 0xb0464b0a3df99d58eb4834d2e29ccb2db4b279620 MATIC0.00341886
0x46a2b87d96268a0a973953e5a30be97c057b38c2daac845440164c6ef12022c2Zap In216681702021-11-22 10:48:108 days 43 mins ago0xff9eb11a1515e2d4aaed52452b4b61a79198ce9eOUT Zapper.Fi: Aave Zap In0 MATIC0.00846372
0xd7c4de322411f7ba96e26a12cbce48ac1749109f6c75b41c161cd140ad0c6c1bApprove216681272021-11-22 10:46:408 days 45 mins ago0xff9eb11a1515e2d4aaed52452b4b61a79198ce9eOUT 0xc2132d05d31c914a87c6611c10748aeb04b58e8f0 MATIC0.00155172
0x06937fc0ef911789b61f2b3e62c62ae23a00f44039c00e2573ab8dcfae5116230x415565b0216681032021-11-22 10:45:528 days 46 mins ago0xff9eb11a1515e2d4aaed52452b4b61a79198ce9eOUT 0x: Exchange Proxy0 MATIC0.00793341
0x80b48e9eeae37e429e67a5223c32cdc404185c9bc826ca2ad69c48deab098d3eZap Out216680452021-11-22 10:43:528 days 48 mins ago0xff9eb11a1515e2d4aaed52452b4b61a79198ce9eOUT Zapper.Fi: Quickswap Zap Out0 MATIC0.01224966
0x6eccf8f083c178e7f7a0a98d51957cf05e3561648b9f57da70af9f83802f1c88Transfer216674092021-11-22 10:20:288 days 1 hr ago0xff9eb11a1515e2d4aaed52452b4b61a79198ce9eOUT USD Coin0 MATIC0.00094356
0x11fd3a1080586db98a1bcac9d1f078fb2ddad55b3b91328e4aaa12a031ea7b27Swap Exact Token...216566832021-11-22 3:50:498 days 7 hrs ago0xff9eb11a1515e2d4aaed52452b4b61a79198ce9eOUT QuickSwap: Router0 MATIC0.0120126
0x37d2494bbe676713688278205c311e01bae3c495fa5ddc1da42a645ef5024b0eApprove216566482021-11-22 3:49:398 days 7 hrs ago0xff9eb11a1515e2d4aaed52452b4b61a79198ce9eOUT 0x0bd49815ea8e2682220bcb41524c0dd10ba71d410 MATIC0.00141783
0x443a468793df02b692a91b99dafa05b7088b2661beebbd7079dcaca4ec46e815Claim216566022021-11-22 3:48:038 days 7 hrs ago0xff9eb11a1515e2d4aaed52452b4b61a79198ce9eOUT 0xe04b4d56d04911a7540f371435f44519eab30fa90 MATIC0.000468297307
0xcb6af4198f05f7a3c2dc397b4a3c35e943ab007dda48b80eab9d66e7bb1dab87Zap In213821932021-11-15 2:34:2615 days 8 hrs ago0xff9eb11a1515e2d4aaed52452b4b61a79198ce9eOUT Zapper.Fi: Quickswap Zap In0 MATIC0.0288728
0xdad27639f407b8b4ec7167364b94354dd4b34969f2bacfe9a6c99623fd60f48cApprove213821712021-11-15 2:33:4215 days 8 hrs ago0xff9eb11a1515e2d4aaed52452b4b61a79198ce9eOUT 0xc2132d05d31c914a87c6611c10748aeb04b58e8f0 MATIC0.0051724
0xafa50d4ddf2c03b470a390567428302e9421ed937fec906a02546bd88795396e0x415565b0213821322021-11-15 2:32:2015 days 8 hrs ago0xff9eb11a1515e2d4aaed52452b4b61a79198ce9eOUT 0x: Exchange Proxy0 MATIC0.0238177
0x26d42a18c1ca60b3c85f5aa75516e87693c03912430111f15588353190e7df12Zap Out213814962021-11-15 2:09:3415 days 9 hrs ago0xff9eb11a1515e2d4aaed52452b4b61a79198ce9eOUT Zapper.Fi: Aave Zap In0 MATIC0.0450584
0xfc78b4f4b4be5c7859a3603ba1da6402354a946d780279da8538da9267092a8cApprove213814842021-11-15 2:09:1015 days 9 hrs ago0xff9eb11a1515e2d4aaed52452b4b61a79198ce9eOUT Aave: amUSDC Token0 MATIC0.0051296
0xd06c33fd0485675e92e8b1858d87ae46b6388b6b2886e89720310cd4e2eec3d8Zap In211390362021-11-08 18:28:2221 days 17 hrs ago0xff9eb11a1515e2d4aaed52452b4b61a79198ce9eOUT Zapper.Fi: Aave Zap In0 MATIC0.0306931
0x79a63f95943117210fe0063b35180a1c79e5f6d1dc904f07fd715f6f119b2712Approve211390152021-11-08 18:27:4021 days 17 hrs ago0xff9eb11a1515e2d4aaed52452b4b61a79198ce9eOUT USD Coin0 MATIC0.0058098
[ Download CSV Export 
Latest 2 internal transactions
Parent Txn Hash Block From To Value
0xb5f205ccc8ef09ccad4a324b79c00566a8a631a0ecc591810ae871143c1bf45f198235732021-10-04 6:28:4457 days 5 hrs ago Zapper.Fi: Aave Zap In0xff9eb11a1515e2d4aaed52452b4b61a79198ce9e1.000093675343528392 MATIC
0xe137e44c7fea16b92c1ecb74cc8cc73e8ad060d7171f9262a3642e395ac9bcd2171139632021-07-21 15:48:31131 days 19 hrs ago QuickSwap: Router0xff9eb11a1515e2d4aaed52452b4b61a79198ce9e440.760937434334389948 MATIC
[ Download CSV Export 
Loading

Contract Name:
0 MATIC

Compiler Version
0

Optimization Enabled:
0 MATIC

Other Settings:
-NA-
Block Transaction Gas Used Reward
Age Block Fee Address BC Fee Address Voting Power Jailed Incoming
Block Uncle Number Difficulty Gas Used Reward
Loading
Loading
Make sure to use the "Vote Down" button for any spammy posts, and the "Vote Up" for interesting conversations.